[[{"header":{"parameterUnit":"m.s-1","parameterCategory":1,"la1":30.2991,"la2":30.254,"lo1":-89.0895,"lo2":-89.0444,"dy":0.0017,"dx":0.0017,"nx":28,"ny":28,"refTime":"2026-01-31T09:00:00:Z","depth":0,"parameterNumber":2,"parameterNumberName":"U-component_of_WINDS"},"data":[0,0,0,0,0,0,0,0,0,0,0,0,0,0,0,0,0,0,0,0,0,0,0,0,0,0,0,0,0,0,0,0,0,0,0,0,0,0,0,0,0,0,0,0,0,0,0,0,0,0,0,0,0,0,0,0,0,0,5.201,5.201,0,5.2079,5.208,5.208,5.2029,5.2027,5.2025,5.2023,5.2091,5.2095,5.2099,0,0,0,0,0,0,0,0,0,0,0,0,0,5.1833,5.1837,5.201,5.201,5.2011,5.2079,5.208,5.2081,5.203,5.2027,5.2024,5.2022,5.209,5.2094,5.2099,0,0,0,0,0,0,0,0,0,0,0,0,0,5.1907,5.1838,5.2009,5.1994,5.1993,5.2079,5.208,5.2081,5.203,5.2027,5.2024,5.202,5.2088,5.2094,5.21,5.2203,0,0,5.2118,5.212,0,0,0,0,0,0,0,0,5.1903,5.1913,5.1995,5.1995,5.1995,5.2042,5.2042,5.2122,5.2031,5.2016,5.2023,5.2019,5.2077,5.2084,5.2104,5.2206,5.2209,5.2118,5.2122,5.2124,5.2126,0,0,0,0,0,0,0,5.1898,5.191,5.2037,5.1997,5.1996,5.1984,5.199,5.2057,5.2065,5.2017,5.2014,5.2023,5.2076,5.2099,5.2105,5.221,5.2118,5.2123,5.2127,5.2129,5.2403,5.2407,0,0,0,0,0,0,5.1894,5.1906,5.2035,5.2039,5.194,5.199,5.1997,5.203,5.2064,5.2066,5.2026,5.202,5.209,5.2099,5.2108,5.2232,5.2124,5.213,5.2133,5.2399,5.2404,5.2408,0,0,0,0,0,0,5.1891,5.1906,5.2032,5.1972,5.1987,5.1996,5.2034,5.2033,5.2055,5.207,5.2071,5.2047,5.2088,5.2099,5.218,5.2234,5.2132,5.2138,5.2395,5.2401,5.2406,5.2481,0,0,0,0,0,0,5.1886,5.1905,5.1944,5.1973,5.199,5.2104,5.2037,5.2037,5.2066,5.2059,5.209,5.2092,5.2086,5.2172,5.2186,5.224,5.2142,5.239,5.2397,5.2404,5.2474,5.2489,5.2501,0,0,0,0,0,5.188,5.1961,5.1946,5.1962,5.2039,5.2107,5.2117,5.2109,5.207,5.211,5.212,5.2091,5.2226,5.2181,5.2196,5.2253,5.2387,5.2395,5.2404,5.2468,5.2486,5.2501,0,0,0,0,0,0,5.1937,5.1965,5.1948,5.2042,5.2073,5.2098,5.2147,5.2128,5.2169,5.2161,5.2149,5.2157,5.2242,5.2255,5.2205,5.2356,5.23,5.2312,5.2344,5.2361,5.2374,5.2369,5.2147,0,0,0,0,0,5.1961,5.2014,5.2035,5.2116,5.2132,5.2138,5.2167,5.2158,5.2189,5.2202,5.2217,5.2248,5.2297,5.233,5.2376,5.2476,5.2483,5.2523,5.2537,5.2548,5.2558,5.2614,5.2633,5.2436,5.2436,5.2436,0,0,5.201,5.2032,5.2065,5.2128,5.215,5.2206,5.2149,5.2209,5.225,5.221,5.2288,5.2302,5.2335,5.2427,5.2468,5.2441,5.2614,5.2559,5.2567,5.2572,5.2625,5.2644,5.266,5.2442,5.2441,5.244,0,0,5.2127,5.2149,5.222,5.2245,5.2281,5.2284,5.2302,5.2331,5.2339,5.2417,5.239,5.2438,5.2523,5.2549,5.2573,5.2705,5.2681,5.2721,5.2792,5.2847,5.2862,5.2876,5.2924,5.2942,5.2731,5.2731,5.2731,0,5.2183,5.2266,5.2258,5.2322,5.2351,5.232,5.2392,5.2416,5.2465,5.2486,5.2455,5.2563,5.2583,5.2681,5.2714,5.2734,5.2754,5.2716,5.2861,5.2875,5.2887,5.2933,5.2951,5.2736,5.2735,5.2735,5.2735,0,5.2334,5.2392,5.2445,5.2495,5.253,5.2597,5.26,5.2637,5.2627,5.2634,5.2716,5.2739,5.2791,5.2814,5.2803,5.2912,5.2894,5.2863,5.2806,5.2911,5.2954,5.2971,5.2743,5.2741,5.274,5.2738,0,0,5.2487,5.2535,5.2554,5.2578,5.2617,5.2662,5.2729,5.2781,5.2813,5.2849,5.2905,5.298,5.2952,5.2979,5.2972,5.302,5.3125,5.2983,5.2983,5.3009,5.3248,5.3272,5.3292,5.311,5.3113,5.3116,5.3246,0,5.2608,5.2725,5.2721,5.2831,5.2885,5.2858,5.2917,5.2948,5.2957,5.3005,5.3015,5.3069,5.3027,5.3044,5.3091,5.3103,5.3173,5.3093,5.3162,5.3165,5.3155,5.3314,5.3339,5.346,5.3262,5.3265,5.3267,0,5.2763,5.2806,5.2922,5.2956,5.2979,5.3031,5.308,5.3126,5.3161,5.3165,5.3198,5.3184,5.3252,5.3196,5.3291,5.3237,5.3265,5.3276,5.328,5.3286,5.3222,5.3325,5.3498,5.3516,5.3293,5.3291,5.3289,0,5.2865,5.2952,5.3032,5.3053,5.3095,5.3133,5.3152,5.3184,5.3216,5.3259,5.328,5.333,5.3357,5.3397,5.3397,5.3355,5.3494,5.3436,5.3499,5.3499,5.3528,5.3526,5.3709,5.3547,5.3547,5.3546,5.3546,0,5.2999,5.3071,5.3079,5.3129,5.3209,5.3205,5.3285,5.33,5.3329,5.3382,5.3361,5.3411,5.3408,5.3459,5.346,5.354,5.3552,5.3557,5.3556,5.3559,5.3558,5.3577,5.3568,5.3551,5.355,5.3549,5.3548,0,5.3125,5.3133,5.322,5.3254,5.3264,5.3322,5.335,5.3398,5.3407,5.3474,5.3489,5.3503,5.3562,5.3567,5.3634,5.3635,5.3732,5.3722,5.372,5.3719,5.3781,5.3776,5.3982,5.4009,5.3829,5.3831,5.3833,0,5.3211,5.3266,5.3306,5.3341,5.3362,5.3418,5.3452,5.3451,5.3487,5.3533,5.3576,5.3633,5.3679,5.3775,5.3791,5.3843,5.3834,5.3903,5.3842,5.3844,5.3836,5.3833,5.3839,5.3915,5.3917,5.3918,5.392,0,5.3362,5.3364,5.3414,5.3467,5.3508,5.3549,5.3587,5.3617,5.3621,5.3663,5.3724,5.3759,5.383,5.3888,5.394,5.3959,5.3941,5.3939,5.3957,5.3959,5.3957,5.396,5.3753,5.3934,5.3933,5.3932,5.3931,5.393,5.347,5.3519,5.3556,5.3613,5.3642,5.368,5.3727,5.3743,5.3794,5.3853,5.3849,5.3917,5.3953,5.4022,5.4045,5.4099,5.4075,5.41,5.4107,5.4113,5.412,5.3949,5.4108,5.4108,5.4107,5.4107,5.4107,0,5.3621,5.3644,5.3697,5.3753,5.3798,5.3779,5.3821,5.386,5.392,5.3956,5.4003,5.4074,5.4131,5.4153,5.4209,5.4247,5.424,5.4262,5.4259,5.4264,5.4137,5.4117,5.4267,5.4267,5.4267,5.4267,5.4267,5.4267,5.3704,5.3786,5.3794,5.3891,5.3913,5.3981,5.4007,5.4041,5.407,5.4151,5.4199,5.4214,5.4245,5.4303,5.4355,5.436,5.4381,5.4407,5.4408,5.4289,5.4273,5.4257,5.4238,5.4411,5.4412,5.4531,5.4532,5.4533]},{"header":{"parameterUnit":"m.s-1","parameterCategory":1,"la1":30.2991,"la2":30.254,"lo1":-89.0895,"lo2":-89.0444,"dy":0.0017,"dx":0.0017,"nx":28,"ny":28,"refTime":"2026-01-31T09:00:00:Z","depth":0,"parameterNumber":3,"parameterNumberName":"V-component_of_WINDS"},"data":[0,0,0,0,0,0,0,0,0,0,0,0,0,0,0,0,0,0,0,0,0,0,0,0,0,0,0,0,0,0,0,0,0,0,0,0,0,0,0,0,0,0,0,0,0,0,0,0,0,0,0,0,0,0,0,0,0,0,-9.2933,-9.2935,0,-9.3143,-9.3145,-9.3148,-9.3111,-9.3107,-9.3104,-9.31,-9.331,-9.3319,-9.3328,0,0,0,0,0,0,0,0,0,0,0,0,0,-9.2497,-9.2505,-9.2932,-9.2935,-9.2938,-9.3142,-9.3145,-9.3148,-9.3112,-9.3107,-9.3103,-9.3098,-9.3307,-9.3318,-9.3329,0,0,0,0,0,0,0,0,0,0,0,0,0,-9.2694,-9.2507,-9.2932,-9.2944,-9.2948,-9.3142,-9.3145,-9.3149,-9.3113,-9.3107,-9.3101,-9.3096,-9.3304,-9.3317,-9.333,-9.3524,0,0,-9.3372,-9.3377,0,0,0,0,0,0,0,0,-9.2683,-9.271,-9.294,-9.2944,-9.2948,-9.3095,-9.3069,-9.3275,-9.3114,-9.305,-9.31,-9.3094,-9.3243,-9.3261,-9.3312,-9.3534,-9.3543,-9.3373,-9.3381,-9.3387,-9.3391,0,0,0,0,0,0,0,-9.2669,-9.2701,-9.3015,-9.2943,-9.2948,-9.2938,-9.296,-9.3107,-9.3174,-9.3055,-9.3053,-9.3078,-9.3244,-9.3299,-9.3317,-9.3546,-9.3372,-9.3384,-9.3393,-9.3398,-9.394,-9.3946,0,0,0,0,0,0,-9.2652,-9.269,-9.3009,-9.3022,-9.2799,-9.2951,-9.2975,-9.3053,-9.3173,-9.3186,-9.3083,-9.3076,-9.3279,-9.3301,-9.3324,-9.3561,-9.3387,-9.3399,-9.3407,-9.3934,-9.3941,-9.3948,0,0,0,0,0,0,-9.2643,-9.2681,-9.3,-9.2856,-9.2895,-9.2964,-9.3052,-9.306,-9.3116,-9.3194,-9.3205,-9.3128,-9.3275,-9.3305,-9.3476,-9.3568,-9.3405,-9.3418,-9.3926,-9.3936,-9.3945,-9.4035,0,0,0,0,0,0,-9.2631,-9.2678,-9.2753,-9.2857,-9.2903,-9.315,-9.3058,-9.3068,-9.314,-9.3133,-9.3239,-9.3251,-9.3273,-9.3456,-9.3489,-9.3584,-9.3428,-9.3918,-9.393,-9.3942,-9.4024,-9.4047,-9.4066,0,0,0,0,0,-9.2615,-9.2769,-9.2757,-9.2796,-9.2999,-9.3155,-9.3181,-9.3205,-9.3148,-9.3223,-9.3274,-9.3248,-9.3552,-9.3473,-9.3511,-9.3611,-9.3912,-9.3927,-9.3941,-9.4015,-9.4042,-9.4065,0,0,0,0,0,0,-9.2671,-9.2782,-9.2771,-9.2963,-9.305,-9.3148,-9.3245,-9.3232,-9.3336,-9.3325,-9.3349,-9.3373,-9.3547,-9.3595,-9.3506,-9.3806,-9.3724,-9.3746,-9.3768,-9.3794,-9.3815,-9.38,-9.344,0,0,0,0,0,-9.2706,-9.2825,-9.2915,-9.3075,-9.312,-9.3175,-9.3244,-9.3255,-9.3346,-9.3382,-9.3445,-9.3533,-9.3648,-9.3724,-9.3834,-9.4031,-9.4054,-9.4118,-9.4139,-9.4155,-9.4174,-9.4284,-9.4314,-9.3994,-9.3994,-9.3994,0,0,-9.2778,-9.2854,-9.2927,-9.3089,-9.3158,-9.328,-9.3206,-9.3338,-9.3429,-9.3401,-9.3568,-9.3617,-9.3716,-9.3902,-9.3986,-9.3947,-9.4268,-9.4173,-9.4186,-9.4196,-9.4302,-9.4332,-9.4359,-9.4004,-9.4002,-9.4001,0,0,-9.2973,-9.3042,-9.3185,-9.3256,-9.3363,-9.3399,-9.3433,-9.3535,-9.3567,-9.3735,-9.3718,-9.3825,-9.4023,-9.4096,-9.4158,-9.4384,-9.4365,-9.4419,-9.4527,-9.4634,-9.4659,-9.4682,-9.4764,-9.4793,-9.4438,-9.4438,-9.4438,0,-9.305,-9.3235,-9.3259,-9.3394,-9.3466,-9.345,-9.3594,-9.3662,-9.3798,-9.3848,-9.3803,-9.4053,-9.4119,-9.4322,-9.4378,-9.4428,-9.4468,-9.4407,-9.4654,-9.4677,-9.4698,-9.4777,-9.4807,-9.4444,-9.4443,-9.4443,-9.4442,0,-9.3324,-9.3453,-9.3555,-9.369,-9.3773,-9.3912,-9.3957,-9.4039,-9.4043,-9.4084,-9.4255,-9.4334,-9.4461,-9.451,-9.4514,-9.4715,-9.4688,-9.4648,-9.4567,-9.4734,-9.4809,-9.4839,-9.4453,-9.4451,-9.4449,-9.4447,0,0,-9.3559,-9.3708,-9.3746,-9.3808,-9.3925,-9.4025,-9.4163,-9.429,-9.436,-9.4454,-9.4572,-9.4741,-9.4707,-9.4778,-9.479,-9.4884,-9.506,-9.4833,-9.4836,-9.4874,-9.5288,-9.5318,-9.5353,-9.5048,-9.5054,-9.5059,-9.528,0,-9.3767,-9.4014,-9.4041,-9.4261,-9.438,-9.4367,-9.4488,-9.4573,-9.4615,-9.4722,-9.4767,-9.4889,-9.4832,-9.4876,-9.4968,-9.5019,-9.5144,-9.5004,-9.5157,-9.5162,-9.5134,-9.5391,-9.5423,-9.5628,-9.5309,-9.5314,-9.5318,0,-9.4042,-9.4148,-9.4381,-9.4484,-9.4535,-9.4643,-9.4763,-9.4866,-9.4962,-9.4986,-9.5067,-9.5068,-9.5211,-9.5124,-9.5321,-9.5225,-9.529,-9.5325,-9.5333,-9.5349,-9.5251,-9.5415,-9.5694,-9.5726,-9.5363,-9.536,-9.5356,0,-9.4193,-9.4393,-9.4559,-9.4612,-9.4736,-9.4813,-9.4868,-9.4959,-9.5034,-9.5138,-9.5188,-9.5306,-9.5371,-9.5462,-9.5495,-9.5429,-9.5692,-9.5607,-9.5716,-9.5716,-9.5773,-9.5769,-9.6067,-9.5812,-9.5812,-9.5811,-9.581,0,-9.4422,-9.4565,-9.4629,-9.4731,-9.4891,-9.4921,-9.5078,-9.5129,-9.5211,-9.5322,-9.5317,-9.5421,-9.5458,-9.5569,-9.5595,-9.5756,-9.5784,-9.5808,-9.5814,-9.581,-9.5807,-9.5853,-9.584,-9.5819,-9.5818,-9.5816,-9.5814,0,-9.4618,-9.4666,-9.4846,-9.495,-9.4979,-9.5093,-9.5181,-9.528,-9.5321,-9.5462,-9.5497,-9.5562,-9.5692,-9.5734,-9.589,-9.5908,-9.6096,-9.6088,-9.6065,-9.6066,-9.6173,-9.6163,-9.6512,-9.656,-9.6272,-9.6275,-9.6277,0,-9.4762,-9.4872,-9.4989,-9.5064,-9.5123,-9.5244,-9.5322,-9.5355,-9.5436,-9.5556,-9.564,-9.577,-9.5875,-9.6084,-9.6144,-9.6264,-9.626,-9.6374,-9.6278,-9.6271,-9.6264,-9.6258,-9.6269,-9.6392,-9.6395,-9.6398,-9.64,0,-9.5013,-9.5032,-9.5145,-9.5269,-9.5362,-9.546,-9.5554,-9.5615,-9.5663,-9.5754,-9.5889,-9.5971,-9.6132,-9.6261,-9.6384,-9.6439,-9.6429,-9.643,-9.6462,-9.6459,-9.6442,-9.6455,-9.6115,-9.6422,-9.6419,-9.6418,-9.6417,-9.6416,-9.5189,-9.5287,-9.5386,-9.5513,-9.5588,-9.5676,-9.5775,-9.583,-9.5943,-9.6079,-9.6091,-9.6237,-9.6332,-9.6496,-9.6558,-9.6672,-9.6639,-9.6685,-9.6696,-9.6708,-9.6717,-9.6423,-9.6694,-9.6693,-9.6693,-9.6692,-9.6692,0,-9.5441,-9.5505,-9.5621,-9.5755,-9.5855,-9.5838,-9.5942,-9.6026,-9.6155,-9.6245,-9.635,-9.6506,-9.6631,-9.6703,-9.6828,-9.6906,-9.6904,-9.6938,-9.6933,-9.6946,-9.6738,-9.6699,-9.6937,-9.6937,-9.6937,-9.6937,-9.6937,-9.6937,-9.5585,-9.5752,-9.5783,-9.5987,-9.6048,-9.6193,-9.6254,-9.6336,-9.6408,-9.6583,-9.6689,-9.6735,-9.6818,-9.695,-9.7064,-9.7082,-9.7129,-9.7167,-9.7181,-9.6985,-9.696,-9.6936,-9.69,-9.7176,-9.7177,-9.738,-9.7381,-9.7383]}]]